OBJECT M, 47424

Orbit data source: Space-Track

You're viewing an Uncataloged Satellite

Recently launched and/or uncataloged satellites may have evolving metadata. Metadata may include but not limited to: Owner, Maufacturer, Bus, Motor, and Mission.

OBJECT M, 47424 is a satellite in SSO that was launched on Sun, 24 Jan 2021 UTC launched from the Air Force Eastern Test Range (AFETR). Unknown objects in Earth's orbit typically refer to objects detected orbiting the Earth but have not yet been identified or cataloged. These objects could be anything from previously untracked satellites, spent rocket stages, debris from satellite collisions, or even natural meteoroids temporarily captured by Earth's gravity.

Loading next visibility...
Identifier
47424, 2021-006M
Orbit
SSO
Country
Flag of TBDTBD
Related business
Manufacturer
SpaceX/Seattle
Mission
Spacecraft
Bus & Motor
Unknown
Mass
~100 kg wet, ~100 kg dry
Launch date (UTC)
2021-01-24 (6 years ago)
Launch vehicle
Unknown
Launch site
Air Force Eastern Test Range (AFETR)
Object type
Unknown
Shape & HBR
Cyl, 3.5 m
Radar Cross Section
0.110 m², Medium (>0.1 m² and < 1m²)

Expand to show TLE details & history
Last TLE update: 13 hours ago

TLE from 13 hours ago
0 OBJECT M
1 47424U 21006M   26207.62051919  .00005849  00000-0  18098-3 0  9995
2 47424  97.2215 252.3786 0011789  66.2460 294.0018 15.33790208305642
Epoch: 2026-07-26T14:53Z
TLE epoch observation values (Epoch: 2026-07-26T14:53:32.858Z)
Latitude
-0.00003°
Longitude
84.67586°
Altitude
464.356 km
Speed
7.636 km/s
True Right ascension
16h 49m 30s
True Declination
0° 00' 00"
Sunlit
Object was in full shadow at epoch
Visualization orbit readout
Latitude
Unknown
Longitude
Unknown
Altitude
Unknown
Speed
Unknown
Apparent Right ascension
Unknown
Apparent Declination
Unknown
Sunlit
N/A
Visualization observer readout
Local Sidereal Time
16:48:53
Azimuth
Unknown
Elevation
Unknown
Doppler factor
Unknown
Orbital elements
Apogee altitude
469.519 km
Perigee altitude
453.393 km
Semi-major axis
6,839.593 km
Eccentricity
0.00118
Inclination
97.2215°
RAAN
252.3786°
Arg. of periapsis
66.246°
True anomaly
293.87832°
Mean anomaly
294.0018°
Eccentric anomaly
293.94006°
Mean motion
3.83705 °/min
Orbital period
93.82 mins
BSTAR
0.00018098
Loading maneuver chart data...
Computing Atmospheric mass density...

Documentation

Showing up to 5 results
|